| time (UTC) | temp F | wind direction | speed MPH | gust MPH | rain 1hr in | rain 24hr in | rain mn in | humidity % | barometer mb |
| 20260505195537 | 75 | 158 | 10.0 | 26.0 | 0.00 | 0.00 | 0.00 | 35 | 1004.6 |
| 20260505195032 | 76 | 181 | 11.0 | 26.0 | 0.00 | 0.00 | 0.00 | 35 | 1004.9 |
| 20260505194554 | 76 | 220 | 13.0 | 26.0 | 0.00 | 0.00 | 0.00 | 35 | 1004.7 |
| 20260505194142 | 76 | 195 | 8.0 | 18.0 | 0.00 | 0.00 | 0.00 | 36 | 1004.7 |
| 20260505193608 | 75 | 201 | 9.0 | 22.0 | 0.00 | 0.00 | 0.00 | 36 | 1004.6 |
| 20260505193044 | 75 | 230 | 13.0 | 32.0 | 0.00 | 0.00 | 0.00 | 36 | 1004.9 |
| 20260505192538 | 74 | 189 | 15.0 | 32.0 | 0.00 | 0.00 | 0.00 | 37 | 1005.2 |
| 20260505192034 | 74 | 235 | 15.0 | 27.0 | 0.00 | 0.00 | 0.00 | 38 | 1005.1 |
| 20260505191604 | 74 | 243 | 13.0 | 27.0 | 0.00 | 0.00 | 0.00 | 38 | 1005.1 |
| 20260505191035 | 74 | 146 | 13.0 | 25.0 | 0.00 | 0.00 | 0.00 | 39 | 1005.0 |
| 20260505190606 | 74 | 273 | 12.0 | 27.0 | 0.00 | 0.00 | 0.00 | 39 | 1005.2 |
| 20260505190039 | 74 | 197 | 11.0 | 27.0 | 0.00 | 0.00 | 0.00 | 39 | 1005.0 |
| 20260505185623 | 74 | 195 | 11.0 | 25.0 | 0.00 | 0.00 | 0.00 | 38 | 1005.1 |
| 20260505185036 | 74 | 142 | 12.0 | 24.0 | 0.00 | 0.00 | 0.00 | 38 | 1005.3 |
| 20260505184605 | 74 | 218 | 14.0 | 24.0 | 0.00 | 0.00 | 0.00 | 38 | 1005.4 |
| 20260505184041 | 73 | 163 | 12.0 | 30.0 | 0.00 | 0.00 | 0.00 | 40 | 1005.5 |
| 20260505183610 | 73 | 156 | 9.0 | 39.0 | 0.00 | 0.00 | 0.00 | 40 | 1005.6 |
| 20260505183040 | 74 | 177 | 17.0 | 39.0 | 0.00 | 0.00 | 0.00 | 37 | 1005.5 |
| 20260505182627 | 75 | 211 | 12.0 | 28.0 | 0.00 | 0.00 | 0.00 | 38 | 1005.5 |
| 20260505182545 | 75 | 211 | 12.0 | 28.0 | 0.00 | 0.00 | 0.00 | 38 | 1005.5 |
| 20260505182040 | 74 | 197 | 9.0 | 22.0 | 0.00 | 0.00 | 0.00 | 39 | 1005.4 |
| 20260505181526 | 74 | 166 | 9.0 | 32.0 | 0.00 | 0.00 | 0.00 | 39 | 1005.5 |
| 20260505181051 | 74 | 189 | 14.0 | 32.0 | 0.00 | 0.00 | 0.00 | 38 | 1005.7 |
| 20260505180527 | 74 | 199 | 16.0 | 26.0 | 0.00 | 0.00 | 0.00 | 37 | 1005.5 |
| 20260505180053 | 73 | 235 | 9.0 | 27.0 | 0.00 | 0.00 | 0.00 | 39 | 1005.6 |
| 20260505175549 | 73 | 170 | 12.0 | 27.0 | 0.00 | 0.00 | 0.00 | 39 | 1005.5 |
| 20260505175155 | 73 | 239 | 14.0 | 34.0 | 0.00 | 0.00 | 0.00 | 41 | 1005.8 |
| 20260505174548 | 73 | 222 | 13.0 | 34.0 | 0.00 | 0.00 | 0.00 | 40 | 1006.6 |
| 20260505174045 | 73 | 136 | 13.0 | 27.0 | 0.00 | 0.00 | 0.00 | 41 | 1005.7 |
| 20260505173542 | 73 | 204 | 14.0 | 27.0 | 0.00 | 0.00 | 0.00 | 43 | 1005.8 |
| 20260505173038 | 73 | 229 | 9.0 | 33.0 | 0.00 | 0.00 | 0.00 | 42 | 1005.8 |
| 20260505172645 | 73 | 161 | 11.0 | 33.0 | 0.00 | 0.00 | 0.00 | 42 | 1006.1 |
| 20260505172037 | 73 | 170 | 12.0 | 18.0 | 0.00 | 0.00 | 0.00 | 41 | 1006.1 |
| 20260505171534 | 73 | 174 | 9.0 | 20.0 | 0.00 | 0.00 | 0.00 | 41 | 1005.9 |
| 20260505171059 | 73 | 167 | 7.0 | 18.0 | 0.00 | 0.00 | 0.00 | 43 | 1005.8 |
| 20260505170534 | 73 | 193 | 8.0 | 20.0 | 0.00 | 0.00 | 0.00 | 42 | 1006.0 |
| 20260505165534 | 73 | 195 | 10.0 | 28.0 | 0.00 | 0.00 | 0.00 | 42 | 1006.1 |
| 20260505165103 | 73 | 232 | 11.0 | 30.0 | 0.00 | 0.00 | 0.00 | 43 | 1006.1 |
| 20260505164539 | 73 | 226 | 13.0 | 30.0 | 0.00 | 0.00 | 0.00 | 42 | 1006.5 |
| 20260505164109 | 73 | 217 | 7.0 | 22.0 | 0.00 | 0.00 | 0.00 | 42 | 1006.3 |
| 20260505163552 | 73 | 218 | 10.0 | 23.0 | 0.00 | 0.00 | 0.00 | 42 | 1006.5 |
| 20260505163059 | 73 | 221 | 10.0 | 26.0 | 0.00 | 0.00 | 0.00 | 43 | 1006.4 |
| 20260505162530 | 73 | 236 | 12.0 | 26.0 | 0.00 | 0.00 | 0.00 | 41 | 1006.6 |
| 20260505162101 | 73 | 213 | 9.0 | 21.0 | 0.00 | 0.00 | 0.00 | 42 | 1006.8 |
| 20260505161535 | 73 | 193 | 9.0 | 17.0 | 0.00 | 0.00 | 0.00 | 43 | 1006.7 |
| 20260505161029 | 72 | 217 | 8.0 | 27.0 | 0.00 | 0.00 | 0.00 | 44 | 1006.6 |
| 20260505160553 | 72 | 226 | 12.0 | 27.0 | 0.00 | 0.00 | 0.00 | 43 | 1006.7 |
| 20260505153111 | 71 | 181 | 11.0 | 23.0 | 0.00 | 0.00 | 0.00 | 47 | 1007.2 |
| 20260505152545 | 70 | 156 | 9.0 | 23.0 | 0.00 | 0.00 | 0.00 | 47 | 1007.3 |
| 20260505152133 | 70 | 262 | 10.0 | 22.0 | 0.00 | 0.00 | 0.00 | 47 | 1007.5 |
| 20260505151656 | 70 | 290 | 12.0 | 22.0 | 0.00 | 0.00 | 0.00 | 48 | 1007.2 |
| 20260505151613 | 70 | 290 | 12.0 | 22.0 | 0.00 | 0.00 | 0.00 | 48 | 1007.2 |
| 20260505151048 | 69 | 222 | 10.0 | 20.0 | 0.00 | 0.00 | 0.00 | 49 | 1007.1 |
| 20260505150525 | 69 | 193 | 11.0 | 24.0 | 0.00 | 0.00 | 0.00 | 48 | 1007.4 |
| 20260505150115 | 69 | 229 | 13.0 | 24.0 | 0.00 | 0.00 | 0.00 | 47 | 1007.5 |
| 20260505140553 | 68 | 263 | 12.0 | 27.0 | 0.00 | 0.00 | 0.00 | 50 | 1007.7 |
| 20260505130145 | 64 | 243 | 7.0 | 17.0 | 0.00 | 0.00 | 0.00 | 55 | 1007.6 |
| 20260505125032 | 63 | 185 | 3.0 | 16.0 | 0.00 | 0.00 | 0.00 | 56 | 1007.4 |
| 20260505124557 | 63 | 247 | 9.0 | 16.0 | 0.00 | 0.00 | 0.00 | 56 | 1007.5 |
| 20260505124126 | 63 | 243 | 7.0 | 15.0 | 0.00 | 0.00 | 0.00 | 56 | 1007.6 |
| 20260505123540 | 63 | 218 | 8.0 | 15.0 | 0.00 | 0.00 | 0.00 | 56 | 1007.5 |
| 20260505123036 | 63 | 208 | 6.0 | 15.0 | 0.00 | 0.00 | 0.00 | 57 | 1007.5 |
| 20260505122604 | 63 | 251 | 5.0 | 12.0 | 0.00 | 0.00 | 0.00 | 57 | 1007.4 |
| 20260505122036 | 62 | 238 | 7.0 | 12.0 | 0.00 | 0.00 | 0.00 | 58 | 1007.5 |
| 20260505121604 | 62 | 175 | 4.0 | 12.0 | 0.00 | 0.00 | 0.00 | 58 | 1007.5 |
| 20260505121112 | 61 | 228 | 8.0 | 12.0 | 0.00 | 0.00 | 0.00 | 58 | 1007.5 |
| 20260505120547 | 61 | 239 | 5.0 | 15.0 | 0.00 | 0.00 | 0.00 | 60 | 1007.3 |
| 20260505120138 | 60 | 188 | 8.0 | 16.0 | 0.00 | 0.00 | 0.00 | 60 | 1007.4 |
| 20260505115528 | 60 | 175 | 8.0 | 16.0 | 0.00 | 0.00 | 0.00 | 60 | 1007.3 |
| 20260505115120 | 60 | 160 | 6.0 | 11.0 | 0.00 | 0.00 | 0.00 | 61 | 1007.3 |
| 20260505114529 | 59 | 199 | 7.0 | 11.0 | 0.00 | 0.00 | 0.00 | 61 | 1007.3 |
| 20260505114025 | 59 | 233 | 6.0 | 12.0 | 0.00 | 0.00 | 0.00 | 61 | 1007.3 |
| 20260505113549 | 58 | 198 | 5.0 | 10.0 | 0.00 | 0.00 | 0.00 | 62 | 1007.1 |
| 20260505113059 | 58 | 224 | 5.0 | 11.0 | 0.00 | 0.00 | 0.00 | 62 | 1007.3 |
| 20260505112532 | 57 | 233 | 6.0 | 11.0 | 0.00 | 0.00 | 0.00 | 63 | 1007.3 |
| 20260505112028 | 57 | 206 | 4.0 | 10.0 | 0.00 | 0.00 | 0.00 | 63 | 1007.2 |
| 20260505111616 | 57 | 231 | 5.0 | 11.0 | 0.00 | 0.00 | 0.00 | 63 | 1007.3 |
| 20260505111118 | 57 | 191 | 4.0 | 11.0 | 0.00 | 0.00 | 0.00 | 63 | 1007.0 |
| 20260505110626 | 56 | 208 | 5.0 | 13.0 | 0.00 | 0.00 | 0.00 | 64 | 1007.1 |
| 20260505102107 | 54 | 239 | 3.0 | 9.0 | 0.00 | 0.00 | 0.00 | 66 | 1006.8 |
| 20260505101541 | 54 | 330 | 4.0 | 9.0 | 0.00 | 0.00 | 0.00 | 66 | 1006.7 |
| 20260505101148 | 54 | 253 | 2.0 | 9.0 | 0.00 | 0.00 | 0.00 | 66 | 1006.7 |
| 20260505100540 | 54 | 206 | 5.0 | 10.0 | 0.00 | 0.00 | 0.00 | 66 | 1006.7 |
| 20260505100112 | 53 | 245 | 3.0 | 7.0 | 0.00 | 0.00 | 0.00 | 66 | 1006.7 |
| 20260505095552 | 54 | 243 | 2.0 | 9.0 | 0.00 | 0.00 | 0.00 | 66 | 1006.6 |
| 20260505095047 | 54 | 310 | 4.0 | 9.0 | 0.00 | 0.00 | 0.00 | 66 | 1006.4 |
| 20260505094542 | 54 | 224 | 2.0 | 7.0 | 0.00 | 0.00 | 0.00 | 65 | 1006.4 |
| 20260505094037 | 54 | 239 | 3.0 | 7.0 | 0.00 | 0.00 | 0.00 | 65 | 1006.5 |
| 20260505093606 | 54 | 229 | 3.0 | 8.0 | 0.00 | 0.00 | 0.00 | 64 | 1006.4 |
| 20260505093039 | 54 | 255 | 3.0 | 8.0 | 0.00 | 0.00 | 0.00 | 64 | 1006.6 |
| 20260505092533 | 55 | 213 | 4.0 | 10.0 | 0.00 | 0.00 | 0.00 | 63 | 1006.5 |
| 20260505092029 | 55 | 211 | 3.0 | 12.0 | 0.00 | 0.00 | 0.00 | 63 | 1006.4 |
| 20260505091527 | 55 | 201 | 4.0 | 11.0 | 0.00 | 0.00 | 0.00 | 62 | 1006.4 |
| 20260505091051 | 55 | 217 | 3.0 | 14.0 | 0.00 | 0.00 | 0.00 | 62 | 1006.6 |
| 20260505090556 | 55 | 210 | 3.0 | 14.0 | 0.00 | 0.00 | 0.00 | 62 | 1006.7 |
| 20260505090032 | 55 | 236 | 4.0 | 11.0 | 0.00 | 0.00 | 0.00 | 62 | 1006.6 |
| 20260505085600 | 55 | 220 | 5.0 | 12.0 | 0.00 | 0.00 | 0.00 | 62 | 1006.7 |
| 20260505085108 | 55 | 212 | 6.0 | 11.0 | 0.00 | 0.00 | 0.00 | 62 | 1006.8 |
| 20260505084540 | 55 | 258 | 5.0 | 10.0 | 0.00 | 0.00 | 0.00 | 62 | 1006.9 |
| 20260505084036 | 55 | 208 | 5.0 | 10.0 | 0.00 | 0.00 | 0.00 | 62 | 1006.9 |
| 20260505083625 | 55 | 218 | 4.0 | 11.0 | 0.00 | 0.00 | 0.00 | 62 | 1006.9 |
| 20260505083113 | 55 | 222 | 5.0 | 10.0 | 0.00 | 0.00 | 0.00 | 61 | 1006.9 |
| 20260505082548 | 55 | 235 | 5.0 | 12.0 | 0.00 | 0.00 | 0.00 | 61 | 1007.0 |
| 20260505082044 | 55 | 268 | 6.0 | 12.0 | 0.00 | 0.00 | 0.00 | 61 | 1007.1 |
| 20260505081538 | 55 | 189 | 5.0 | 14.0 | 0.00 | 0.00 | 0.00 | 61 | 1007.0 |
| 20260505081107 | 55 | 212 | 9.0 | 14.0 | 0.00 | 0.00 | 0.00 | 61 | 1007.0 |
| 20260505080611 | 55 | 216 | 6.0 | 11.0 | 0.00 | 0.00 | 0.00 | 61 | 1007.0 |
| 20260505080045 | 55 | 217 | 5.0 | 11.0 | 0.00 | 0.00 | 0.00 | 61 | 1006.9 |
| 20260505075540 | 55 | 231 | 5.0 | 10.0 | 0.00 | 0.00 | 0.00 | 61 | 1006.9 |
| 20260505075036 | 55 | 192 | 4.0 | 9.0 | 0.00 | 0.00 | 0.00 | 60 | 1007.0 |
| 20260505074532 | 55 | 229 | 4.0 | 11.0 | 0.00 | 0.00 | 0.00 | 60 | 1007.0 |
| 20260505074027 | 55 | 235 | 4.0 | 15.0 | 0.00 | 0.00 | 0.00 | 60 | 1007.1 |
| 20260505073552 | 55 | 186 | 7.0 | 15.0 | 0.00 | 0.00 | 0.00 | 60 | 1007.0 |
| 20260505073047 | 55 | 242 | 6.0 | 12.0 | 0.00 | 0.00 | 0.00 | 60 | 1007.0 |
| 20260505072542 | 55 | 237 | 3.0 | 7.0 | 0.00 | 0.00 | 0.00 | 60 | 1007.0 |
| 20260505072037 | 55 | 214 | 4.0 | 10.0 | 0.00 | 0.00 | 0.00 | 60 | 1007.1 |
| 20260505071533 | 55 | 264 | 4.0 | 11.0 | 0.00 | 0.00 | 0.00 | 59 | 1007.0 |
| 20260505071120 | 55 | 238 | 7.0 | 11.0 | 0.00 | 0.00 | 0.00 | 59 | 1007.0 |
| 20260505070609 | 55 | 190 | 4.0 | 9.0 | 0.00 | 0.00 | 0.00 | 59 | 1007.1 |
| 20260505070045 | 55 | 224 | 4.0 | 12.0 | 0.00 | 0.00 | 0.00 | 59 | 1007.1 |
| 20260505065613 | 56 | 258 | 4.0 | 12.0 | 0.00 | 0.00 | 0.00 | 59 | 1007.1 |
| 20260505065055 | 56 | 211 | 4.0 | 9.0 | 0.00 | 0.00 | 0.00 | 58 | 1007.2 |
| 20260505064531 | 56 | 195 | 4.0 | 9.0 | 0.00 | 0.00 | 0.00 | 58 | 1007.1 |
| 20260505064027 | 56 | 234 | 3.0 | 10.0 | 0.00 | 0.00 | 0.00 | 58 | 1007.2 |
| 20260505063548 | 56 | 214 | 4.0 | 10.0 | 0.00 | 0.00 | 0.00 | 58 | 1007.1 |
| 20260505063044 | 56 | 225 | 5.0 | 12.0 | 0.00 | 0.00 | 0.00 | 58 | 1007.1 |
| 20260505062539 | 56 | 206 | 7.0 | 12.0 | 0.00 | 0.00 | 0.00 | 57 | 1007.3 |
| 20260505062034 | 56 | 208 | 7.0 | 16.0 | 0.00 | 0.00 | 0.00 | 57 | 1007.3 |
| 20260505061531 | 56 | 231 | 6.0 | 16.0 | 0.00 | 0.00 | 0.00 | 58 | 1007.3 |
| 20260505061101 | 56 | 243 | 6.0 | 14.0 | 0.00 | 0.00 | 0.00 | 58 | 1007.4 |
| 20260505060608 | 56 | 216 | 8.0 | 15.0 | 0.00 | 0.00 | 0.00 | 58 | 1007.4 |
| 20260505060053 | 56 | 221 | 5.0 | 14.0 | 0.00 | 0.00 | 0.00 | 58 | 1007.5 |
| 20260505055548 | 55 | 204 | 6.0 | 10.0 | 0.00 | 0.00 | 0.00 | 58 | 1007.4 |
| 20260505055049 | 55 | 256 | 4.0 | 10.0 | 0.00 | 0.00 | 0.00 | 58 | 1007.6 |
| 20260505054618 | 55 | 178 | 4.0 | 12.0 | 0.00 | 0.00 | 0.00 | 58 | 1007.6 |
| 20260505054032 | 55 | 172 | 6.0 | 13.0 | 0.00 | 0.00 | 0.00 | 58 | 1007.6 |
| 20260505053557 | 55 | 191 | 4.0 | 14.0 | 0.00 | 0.00 | 0.00 | 58 | 1007.6 |
| 20260505053033 | 55 | 145 | 6.0 | 12.0 | 0.00 | 0.00 | 0.00 | 58 | 1007.8 |
| 20260505052527 | 55 | 172 | 4.0 | 11.0 | 0.00 | 0.00 | 0.00 | 58 | 1007.7 |
| 20260505052052 | 55 | 170 | 6.0 | 12.0 | 0.00 | 0.00 | 0.00 | 58 | 1007.7 |
| 20260505051555 | 55 | 160 | 7.0 | 12.0 | 0.00 | 0.00 | 0.00 | 59 | 1007.7 |
| 20260505051120 | 55 | 222 | 4.0 | 11.0 | 0.00 | 0.00 | 0.00 | 59 | 1007.7 |
| 20260505050533 | 55 | 173 | 6.0 | 11.0 | 0.00 | 0.00 | 0.00 | 60 | 1007.7 |
| 20260505041536 | 54 | 220 | 5.0 | 13.0 | 0.00 | 0.00 | 0.00 | 61 | 1007.9 |
| 20260505041128 | 54 | 184 | 7.0 | 12.0 | 0.00 | 0.00 | 0.00 | 62 | 1007.9 |
| 20260505040541 | 54 | 220 | 3.0 | 12.0 | 0.00 | 0.00 | 0.00 | 61 | 1007.9 |
| 20260505040106 | 54 | 202 | 6.0 | 12.0 | 0.00 | 0.00 | 0.00 | 61 | 1007.9 |
| 20260505035540 | 54 | 201 | 6.0 | 13.0 | 0.00 | 0.00 | 0.00 | 61 | 1007.8 |
| 20260505035036 | 54 | 197 | 7.0 | 17.0 | 0.00 | 0.00 | 0.00 | 62 | 1007.7 |
| 20260505034655 | 54 | 201 | 7.0 | 17.0 | 0.00 | 0.00 | 0.00 | 62 | 1007.7 |
| 20260505034049 | 54 | 236 | 5.0 | 12.0 | 0.00 | 0.00 | 0.00 | 62 | 1007.6 |
| 20260505033547 | 54 | 215 | 6.0 | 12.0 | 0.00 | 0.00 | 0.00 | 62 | 1007.7 |
| 20260505033055 | 54 | 158 | 7.0 | 12.0 | 0.00 | 0.00 | 0.00 | 62 | 1007.6 |
| 20260505032528 | 54 | 225 | 5.0 | 12.0 | 0.00 | 0.00 | 0.00 | 62 | 1007.6 |
| 20260505032048 | 54 | 202 | 5.0 | 11.0 | 0.00 | 0.00 | 0.00 | 63 | 1007.6 |
| 20260505031553 | 54 | 162 | 5.0 | 10.0 | 0.00 | 0.00 | 0.00 | 63 | 1007.5 |
| 20260505031056 | 54 | 189 | 5.0 | 11.0 | 0.00 | 0.00 | 0.00 | 63 | 1007.6 |
| 20260505030605 | 54 | 221 | 5.0 | 15.0 | 0.00 | 0.00 | 0.00 | 62 | 1007.6 |
| 20260505030050 | 54 | 159 | 5.0 | 13.0 | 0.00 | 0.00 | 0.00 | 62 | 1007.5 |
| 20260505025558 | 54 | 210 | 7.0 | 14.0 | 0.00 | 0.00 | 0.00 | 62 | 1007.5 |
| 20260505025143 | 54 | 213 | 7.0 | 14.0 | 0.00 | 0.00 | 0.00 | 62 | 1007.5 |
| 20260505024535 | 54 | 159 | 5.0 | 12.0 | 0.00 | 0.00 | 0.00 | 62 | 1007.5 |
| 20260505024031 | 54 | 191 | 7.0 | 13.0 | 0.00 | 0.00 | 0.00 | 62 | 1007.5 |
| 20260505023555 | 54 | 198 | 4.0 | 17.0 | 0.00 | 0.00 | 0.00 | 61 | 1007.5 |
| 20260505023030 | 55 | 189 | 5.0 | 15.0 | 0.00 | 0.00 | 0.00 | 61 | 1007.5 |
| 20260505022619 | 55 | 187 | 6.0 | 15.0 | 0.00 | 0.00 | 0.00 | 61 | 1007.5 |
| 20260505022034 | 55 | 148 | 8.0 | 15.0 | 0.00 | 0.00 | 0.00 | 61 | 1007.5 |
| 20260505021529 | 55 | 178 | 3.0 | 12.0 | 0.00 | 0.00 | 0.00 | 60 | 1007.5 |
| 20260505021058 | 55 | 230 | 4.0 | 10.0 | 0.00 | 0.00 | 0.00 | 60 | 1007.5 |
| 20260505020528 | 55 | 183 | 5.0 | 14.0 | 0.00 | 0.00 | 0.00 | 59 | 1007.6 |
| 20260505020059 | 55 | 172 | 6.0 | 15.0 | 0.00 | 0.00 | 0.00 | 59 | 1007.4 |
| 20260505015625 | 55 | 179 | 6.0 | 10.0 | 0.00 | 0.00 | 0.00 | 58 | 1007.4 |
| 20260505015113 | 56 | 178 | 6.0 | 11.0 | 0.00 | 0.00 | 0.00 | 57 | 1007.4 |
| 20260505014545 | 56 | 141 | 5.0 | 12.0 | 0.00 | 0.00 | 0.00 | 56 | 1007.4 |
| 20260505014041 | 56 | 167 | 6.0 | 12.0 | 0.00 | 0.00 | 0.00 | 54 | 1007.2 |
| 20260505013534 | 57 | 162 | 5.0 | 10.0 | 0.00 | 0.00 | 0.00 | 52 | 1007.2 |
| 20260505013122 | 57 | 146 | 5.0 | 10.0 | 0.00 | 0.00 | 0.00 | 50 | 1007.1 |
| 20260505012532 | 57 | 135 | 4.0 | 8.0 | 0.00 | 0.00 | 0.00 | 49 | 1007.0 |
| 20260505012141 | 58 | 144 | 4.0 | 8.0 | 0.00 | 0.00 | 0.00 | 48 | 1007.0 |
| 20260505011533 | 58 | 145 | 4.0 | 8.0 | 0.00 | 0.00 | 0.00 | 48 | 1007.0 |
| 20260505011029 | 58 | 179 | 3.0 | 6.0 | 0.00 | 0.00 | 0.00 | 48 | 1006.9 |
| 20260505010525 | 58 | 174 | 3.0 | 6.0 | 0.00 | 0.00 | 0.00 | 47 | 1006.9 |
| 20260505010050 | 58 | 163 | 3.0 | 6.0 | 0.00 | 0.00 | 0.00 | 47 | 1006.9 |
| 20260505005546 | 58 | 178 | 3.0 | 7.0 | 0.00 | 0.00 | 0.00 | 47 | 1006.8 |
| 20260505005043 | 58 | 162 | 3.0 | 7.0 | 0.00 | 0.00 | 0.00 | 47 | 1006.7 |
| 20260505004607 | 58 | 173 | 3.0 | 6.0 | 0.00 | 0.00 | 0.00 | 47 | 1006.6 |
| 20260505004050 | 58 | 179 | 3.0 | 6.0 | 0.00 | 0.00 | 0.00 | 46 | 1006.4 |
| 20260505003545 | 59 | 170 | 2.0 | 5.0 | 0.00 | 0.00 | 0.00 | 46 | 1006.5 |
| 20260505003042 | 59 | 170 | 2.0 | 6.0 | 0.00 | 0.00 | 0.00 | 46 | 1006.4 |
| 20260505002610 | 59 | 156 | 3.0 | 8.0 | 0.00 | 0.00 | 0.00 | 45 | 1006.4 |
| 20260505002045 | 59 | 179 | 3.0 | 5.0 | 0.00 | 0.00 | 0.00 | 45 | 1006.4 |
| 20260505001550 | 59 | 172 | 2.0 | 4.0 | 0.00 | 0.00 | 0.00 | 45 | 1006.4 |
| 20260505001045 | 59 | 158 | 3.0 | 8.0 | 0.00 | 0.00 | 0.00 | 44 | 1006.4 |
| 20260505000544 | 60 | 189 | 2.0 | 8.0 | 0.00 | 0.00 | 0.00 | 44 | 1006.4 |
| 20260505000040 | 60 | 176 | 5.0 | 7.0 | 0.00 | 0.00 | 0.00 | 44 | 1006.2 |
| 20260504235551 | 60 | 205 | 3.0 | 12.0 | 0.00 | 0.00 | 0.00 | 44 | 1006.3 |
| 20260504235142 | 60 | 174 | 7.0 | 12.0 | 0.00 | 0.00 | 0.00 | 43 | 1006.2 |
| 20260504234629 | 60 | 178 | 5.0 | 9.0 | 0.00 | 0.00 | 0.00 | 43 | 1006.1 |
| 20260504231538 | 62 | 221 | 5.0 | 13.0 | 0.00 | 0.00 | 0.00 | 40 | 1005.9 |
| 20260504231035 | 62 | 268 | 7.0 | 16.0 | 0.00 | 0.00 | 0.00 | 40 | 1005.8 |
| 20260504230602 | 62 | 216 | 5.0 | 11.0 | 0.00 | 0.00 | 0.00 | 40 | 1005.8 |
| 20260504230110 | 63 | 218 | 8.0 | 12.0 | 0.00 | 0.00 | 0.00 | 40 | 1005.5 |
| 20260504225552 | 63 | 192 | 5.0 | 11.0 | 0.00 | 0.00 | 0.00 | 39 | 1005.4 |
| 20260504225137 | 63 | 229 | 7.0 | 11.0 | 0.00 | 0.00 | 0.00 | 39 | 1005.4 |
| 20260504224604 | 63 | 228 | 5.0 | 13.0 | 0.00 | 0.00 | 0.00 | 39 | 1005.4 |
| 20260504224133 | 63 | 202 | 4.0 | 15.0 | 0.00 | 0.00 | 0.00 | 39 | 1005.5 |
| 20260504223546 | 63 | 204 | 7.0 | 16.0 | 0.00 | 0.00 | 0.00 | 39 | 1005.5 |
| 20260504223043 | 63 | 194 | 4.0 | 15.0 | 0.00 | 0.00 | 0.00 | 39 | 1005.4 |
| 20260504222612 | 63 | 216 | 11.0 | 15.0 | 0.00 | 0.00 | 0.00 | 39 | 1005.5 |
| 20260504222046 | 63 | 139 | 6.0 | 19.0 | 0.00 | 0.00 | 0.00 | 40 | 1005.5 |
| 20260504221545 | 63 | 206 | 9.0 | 19.0 | 0.00 | 0.00 | 0.00 | 39 | 1005.7 |
| 20260504221043 | 63 | 194 | 9.0 | 16.0 | 0.00 | 0.00 | 0.00 | 39 | 1005.5 |
| 20260504220611 | 63 | 188 | 7.0 | 14.0 | 0.00 | 0.00 | 0.00 | 39 | 1005.6 |
| 20260504220026 | 63 | 139 | 7.0 | 13.0 | 0.00 | 0.00 | 0.00 | 39 | 1005.5 |
| 20260504215615 | 63 | 196 | 9.0 | 18.0 | 0.00 | 0.00 | 0.00 | 39 | 1005.5 |
| 20260504215058 | 63 | 210 | 7.0 | 18.0 | 0.00 | 0.00 | 0.00 | 39 | 1005.5 |
| 20260504214533 | 63 | 250 | 7.0 | 17.0 | 0.00 | 0.00 | 0.00 | 39 | 1005.5 |
| 20260504214057 | 63 | 206 | 10.0 | 17.0 | 0.00 | 0.00 | 0.00 | 39 | 1005.6 |
| 20260504213527 | 63 | 199 | 7.0 | 18.0 | 0.00 | 0.00 | 0.00 | 39 | 1005.8 |
| 20260504213148 | 64 | 176 | 8.0 | 18.0 | 0.00 | 0.00 | 0.00 | 39 | 1005.7 |
| 20260504212615 | 64 | 206 | 9.0 | 18.0 | 0.00 | 0.00 | 0.00 | 39 | 1005.4 |
| 20260504212102 | 64 | 234 | 6.0 | 17.0 | 0.00 | 0.00 | 0.00 | 39 | 1005.4 |
| 20260504211535 | 63 | 196 | 8.0 | 16.0 | 0.00 | 0.00 | 0.00 | 39 | 1005.5 |
| 20260504211030 | 63 | 171 | 8.0 | 13.0 | 0.00 | 0.00 | 0.00 | 40 | 1005.5 |
| 20260504210616 | 63 | 187 | 6.0 | 13.0 | 0.00 | 0.00 | 0.00 | 40 | 1005.5 |
| 20260504210153 | 63 | 192 | 7.0 | 20.0 | 0.00 | 0.00 | 0.00 | 41 | 1005.7 |
| 20260504205546 | 62 | 189 | 9.0 | 20.0 | 0.00 | 0.00 | 0.00 | 40 | 1005.5 |
| 20260504205050 | 62 | 199 | 10.0 | 18.0 | 0.00 | 0.00 | 0.00 | 40 | 1005.6 |
| 20260504204553 | 62 | 199 | 8.0 | 18.0 | 0.00 | 0.00 | 0.00 | 41 | 1005.7 |
| 20260504204049 | 62 | 225 | 9.0 | 17.0 | 0.00 | 0.00 | 0.00 | 41 | 1005.9 |
| 20260504203655 | 62 | 189 | 8.0 | 16.0 | 0.00 | 0.00 | 0.00 | 41 | 1005.9 |
| 20260504203030 | 62 | 220 | 7.0 | 16.0 | 0.00 | 0.00 | 0.00 | 41 | 1005.6 |
| 20260504202526 | 62 | 239 | 6.0 | 16.0 | 0.00 | 0.00 | 0.00 | 40 | 1005.7 |
| 20260504202135 | 63 | 197 | 7.0 | 23.0 | 0.00 | 0.00 | 0.00 | 40 | 1005.6 |
| 20260504201622 | 63 | 234 | 12.0 | 23.0 | 0.00 | 0.00 | 0.00 | 39 | 1005.7 |
| 20260504201540 | 63 | 234 | 12.0 | 23.0 | 0.00 | 0.00 | 0.00 | 39 | 1005.7 |
| 20260504201048 | 63 | 210 | 11.0 | 19.0 | 0.00 | 0.00 | 0.00 | 40 | 1005.8 |
| 20260504200546 | 62 | 196 | 10.0 | 19.0 | 0.00 | 0.00 | 0.00 | 40 | 1005.7 |
| 20260504200049 | 62 | 204 | 7.0 | 17.0 | 0.00 | 0.00 | 0.00 | 40 | 1005.8 |